• en Suisse
  • Liste des pays
  • À 7 jours
  • Température de l'eau
  • Carte satellitaire
  • Carte météo
  • Widgets météo
  • user-avatar
    Se connecter

    Météo par heure à Nasiriyah

    Ce jour, 18 Octobre, Jeudi

    Heure Température Précipitation Vent Pression Humidité
    00:00 +35°C° 0.1 mm 3 m/s 757 mmHg 18%
    01:00 +34°C° 0 mm 3 m/s 757 mmHg 18%
    02:00 +34°C° 0 mm 3 m/s 757 mmHg 19%
    03:00 +33°C° 0 mm 3 m/s 757 mmHg 20%
    04:00 +33°C° 0 mm 3 m/s 757 mmHg 21%
    05:00 +31°C° 0 mm 3 m/s 757 mmHg 22%
    06:00 +31°C° 0 mm 3 m/s 757 mmHg 23%
    07:00 +33°C° 0 mm 3 m/s 757 mmHg 22%
    08:00 +35°C° 0 mm 2 m/s 758 mmHg 21%
    09:00 +36°C° 0 mm 2 m/s 758 mmHg 20%
    10:00 +37°C° 0 mm 2 m/s 757 mmHg 18%
    11:00 +38°C° 0 mm 2 m/s 757 mmHg 17%
    12:00 +39°C° 0 mm 2 m/s 757 mmHg 15%
    13:00 +40°C° 0 mm 1 m/s 756 mmHg 14%
    14:00 +40°C° 0 mm 1 m/s 756 mmHg 14%
    15:00 +41°C° 0 mm 1 m/s 756 mmHg 13%
    16:00 +40°C° 0 mm 1 m/s 756 mmHg 13%
    17:00 +39°C° 0 mm 1 m/s 756 mmHg 13%
    18:00 +37°C° 0 mm 1 m/s 756 mmHg 14%
    19:00 +38°C° 0.1 mm 2 m/s 756 mmHg 14%
    20:00 +37°C° 0.1 mm 2 m/s 756 mmHg 15%
    21:00 +37°C° 0.1 mm 3 m/s 756 mmHg 16%
    22:00 +36°C° 0 mm 2 m/s 756 mmHg 16%
    23:00 +36°C° 0 mm 2 m/s 756 mmHg 17%

    Demain, 19 Octobre, Vendredi

    Heure Température Précipitation Vent Pression Humidité
    00:00 +35°C° 0 mm 2 m/s 756 mmHg 18%
    01:00 +35°C° 0 mm 2 m/s 756 mmHg 18%
    02:00 +34°C° 0 mm 2 m/s 756 mmHg 18%
    03:00 +34°C° 0 mm 3 m/s 756 mmHg 18%
    04:00 +34°C° 0 mm 3 m/s 757 mmHg 19%
    05:00 +33°C° 0 mm 3 m/s 757 mmHg 20%
    06:00 +33°C° 0 mm 3 m/s 757 mmHg 21%
    07:00 +34°C° 0 mm 3 m/s 757 mmHg 19%
    08:00 +36°C° 0 mm 3 m/s 758 mmHg 18%
    09:00 +37°C° 0 mm 3 m/s 758 mmHg 17%
    10:00 +38°C° 0 mm 3 m/s 758 mmHg 16%
    11:00 +39°C° 0 mm 3 m/s 758 mmHg 15%
    12:00 +40°C° 0 mm 3 m/s 758 mmHg 14%
    13:00 +40°C° 0 mm 2 m/s 757 mmHg 13%
    14:00 +41°C° 0 mm 2 m/s 757 mmHg 13%
    15:00 +41°C° 0 mm 1 m/s 756 mmHg 12%
    16:00 +40°C° 0 mm 1 m/s 756 mmHg 13%
    17:00 +39°C° 0 mm 1 m/s 756 mmHg 14%
    18:00 +39°C° 0 mm 1 m/s 756 mmHg 14%
    19:00 +38°C° 0 mm 2 m/s 757 mmHg 15%
    20:00 +37°C° 0 mm 3 m/s 757 mmHg 16%
    21:00 +37°C° 0 mm 3 m/s 757 mmHg 16%
    22:00 +36°C° 0 mm 3 m/s 757 mmHg 18%
    23:00 +35°C° 0 mm 3 m/s 757 mmHg 20%

    Après-demain, 20 Octobre, Samedi

    Heure Température Précipitation Vent Pression Humidité
    00:00 +34°C° 0 mm 3 m/s 757 mmHg 22%
    01:00 +34°C° 0 mm 3 m/s 757 mmHg 23%
    02:00 +33°C° 0 mm 3 m/s 757 mmHg 25%
    03:00 +32°C° 0 mm 2 m/s 757 mmHg 26%
    04:00 +31°C° 0 mm 3 m/s 757 mmHg 27%
    05:00 +31°C° 0 mm 3 m/s 757 mmHg 28%
    06:00 +31°C° 0 mm 3 m/s 758 mmHg 29%
    07:00 +33°C° 0 mm 3 m/s 758 mmHg 28%
    08:00 +34°C° 0 mm 4 m/s 759 mmHg 26%
    09:00 +36°C° 0 mm 4 m/s 759 mmHg 25%
    10:00 +37°C° 0 mm 4 m/s 759 mmHg 22%
    11:00 +38°C° 0 mm 4 m/s 759 mmHg 20%
    12:00 +39°C° 0 mm 3 m/s 758 mmHg 17%
    13:00 +40°C° 0 mm 3 m/s 758 mmHg 16%
    14:00 +40°C° 0 mm 3 m/s 757 mmHg 15%
    15:00 +40°C° 0 mm 3 m/s 757 mmHg 14%
    16:00 +40°C° 0 mm 3 m/s 757 mmHg 15%
    17:00 +39°C° 0 mm 3 m/s 757 mmHg 15%
    18:00 +39°C° 0 mm 3 m/s 757 mmHg 16%
    19:00 +39°C° 0 mm 5 m/s 757 mmHg 20%
    20:00 +38°C° 0 mm 6 m/s 757 mmHg 24%
    21:00 +36°C° 0 mm 7 m/s 758 mmHg 28%
    22:00 +35°C° 0 mm 7 m/s 758 mmHg 33%
    23:00 +34°C° 0 mm 8 m/s 758 mmHg 38%

    21 Octobre, Dimanche

    Heure Température Précipitation Vent Pression Humidité
    00:00 +34°C° 0 mm 8 m/s 758 mmHg 43%
    01:00 +33°C° 0 mm 8 m/s 757 mmHg 45%
    02:00 +33°C° 0 mm 7 m/s 757 mmHg 48%
    03:00 +33°C° 0 mm 7 m/s 757 mmHg 50%
    04:00 +32°C° 0 mm 7 m/s 758 mmHg 53%
    05:00 +32°C° 0 mm 6 m/s 758 mmHg 55%
    06:00 +30°C° 0 mm 6 m/s 758 mmHg 57%
    07:00 +33°C° 0 mm 7 m/s 758 mmHg 49%
    08:00 +34°C° 0 mm 7 m/s 758 mmHg 42%
    09:00 +35°C° 0 mm 8 m/s 759 mmHg 34%
    10:00 +38°C° 0 mm 8 m/s 758 mmHg 29%
    11:00 +39°C° 0 mm 7 m/s 758 mmHg 24%
    12:00 +41°C° 0 mm 7 m/s 757 mmHg 19%
    13:00 +41°C° 0 mm 7 m/s 757 mmHg 18%
    14:00 +42°C° 0 mm 6 m/s 756 mmHg 17%
    15:00 +42°C° 0 mm 6 m/s 756 mmHg 16%
    16:00 +40°C° 0.4 mm 7 m/s 756 mmHg 21%
    17:00 +38°C° 0.4 mm 7 m/s 756 mmHg 26%
    18:00 +35°C° 0.4 mm 8 m/s 756 mmHg 30%
    19:00 +34°C° 0.2 mm 8 m/s 756 mmHg 32%
    20:00 +34°C° 0.2 mm 9 m/s 757 mmHg 35%
    21:00 +33°C° 0.2 mm 9 m/s 757 mmHg 37%
    22:00 +33°C° 0 mm 8 m/s 757 mmHg 37%
    23:00 +33°C° 0 mm 7 m/s 757 mmHg 38%

    22 Octobre, Lundi

    Heure Température Précipitation Vent Pression Humidité
    00:00 +33°C° 0 mm 6 m/s 757 mmHg 38%
    01:00 +32°C° 0 mm 5 m/s 757 mmHg 41%
    02:00 +32°C° 0 mm 5 m/s 757 mmHg 43%
    03:00 +32°C° 0 mm 4 m/s 757 mmHg 46%
    04:00 +30°C° 0.1 mm 4 m/s 758 mmHg 48%
    05:00 +30°C° 0.1 mm 5 m/s 758 mmHg 50%
    06:00 +29°C° 0.1 mm 6 m/s 758 mmHg 53%
    07:00 +30°C° 0 mm 6 m/s 759 mmHg 51%
    08:00 +32°C° 0 mm 7 m/s 759 mmHg 49%
    09:00 +33°C° 0 mm 7 m/s 759 mmHg 46%
    10:00 +34°C° 0 mm 6 m/s 759 mmHg 42%
    11:00 +36°C° 0 mm 5 m/s 759 mmHg 37%
    12:00 +37°C° 0 mm 4 m/s 758 mmHg 32%
    13:00 +38°C° 0 mm 3 m/s 758 mmHg 29%
    14:00 +38°C° 0 mm 2 m/s 758 mmHg 26%
    15:00 +39°C° 0 mm 1 m/s 757 mmHg 23%
    16:00 +38°C° 0 mm 2 m/s 758 mmHg 24%
    17:00 +37°C° 0 mm 2 m/s 758 mmHg 25%
    18:00 +37°C° 0 mm 2 m/s 758 mmHg 26%
    19:00 +36°C° 0 mm 4 m/s 758 mmHg 33%
    20:00 +35°C° 0 mm 5 m/s 759 mmHg 39%
    21:00 +34°C° 0 mm 6 m/s 759 mmHg 46%
    22:00 +34°C° 0 mm 6 m/s 759 mmHg 50%
    23:00 +33°C° 0 mm 5 m/s 759 mmHg 53%

    23 Octobre, Mardi

    Heure Température Précipitation Vent Pression Humidité
    00:00 +33°C° 0 mm 5 m/s 758 mmHg 57%
    01:00 +33°C° 0 mm 4 m/s 758 mmHg 58%
    02:00 +32°C° 0 mm 4 m/s 758 mmHg 60%
    03:00 +31°C° 0 mm 3 m/s 758 mmHg 61%
    04:00 +31°C° 0 mm 3 m/s 759 mmHg 61%
    05:00 +30°C° 0 mm 4 m/s 759 mmHg 61%
    06:00 +30°C° 0 mm 4 m/s 759 mmHg 62%
    07:00 +32°C° 0 mm 4 m/s 759 mmHg 56%
    08:00 +33°C° 0 mm 5 m/s 760 mmHg 51%
    09:00 +34°C° 0 mm 5 m/s 760 mmHg 46%
    10:00 +35°C° 0 mm 5 m/s 759 mmHg 42%
    11:00 +37°C° 0 mm 5 m/s 759 mmHg 38%
    12:00 +38°C° 0 mm 4 m/s 759 mmHg 34%
    13:00 +38°C° 0 mm 4 m/s 758 mmHg 32%
    14:00 +38°C° 0 mm 3 m/s 758 mmHg 29%
    15:00 +39°C° 0 mm 3 m/s 758 mmHg 27%
    16:00 +38°C° 0 mm 3 m/s 758 mmHg 28%
    17:00 +38°C° 0 mm 3 m/s 758 mmHg 29%
    18:00 +38°C° 0 mm 4 m/s 758 mmHg 29%
    19:00 +37°C° 0 mm 4 m/s 758 mmHg 30%
    20:00 +37°C° 0 mm 4 m/s 758 mmHg 31%
    21:00 +36°C° 0 mm 4 m/s 758 mmHg 33%
    22:00 +36°C° 0 mm 5 m/s 758 mmHg 36%
    23:00 +35°C° 0 mm 5 m/s 758 mmHg 40%
    Voir plus